User: anonymous   Login
Location: Trondheim
(63.4170°N, 10.4170°E)
Time: 20:44:29
(UTC+02:00)
Language:

Iridium 82 - Orbit

View from above orbital plane
View from above orbital plane
View from above satellite
View from above satellite

Ground track
Ground track

The orbit data is extracted from the following two-line orbital elements,

1 25467U 98051A   16240.30869921  .00000195  00000-0  62499-4 0  9997
2 25467  86.4039 145.0496 0002326  88.9274 271.2188 14.34218305944496
Epoch (UTC): 27 August 2016 07:24:31
Eccentricity: 0.0002326
inclination: 86.4039°
perigee height: 776 km
apogee height: 779 km
right ascension of ascending node: 145.0496°
argument of perigee: 88.9274°
revolutions per day: 14.34218305
mean anomaly at epoch: 271.2188°
orbit number at epoch: 94449

The dashed part of the orbit path shows where the satellite is in the earth's shadow,  

DLR